Previsão horária em Abay (Tyulkubasskiy rayon)

Hoje, 12 Abril, Segunda-feira

Tempo Temperatura Precipitação Vento Pressão Humidade
00:00 +8°C° 0.2 mm 1 m/s 706 mmHg 81%
01:00 +8°C° 0.2 mm 1 m/s 707 mmHg 82%
02:00 +8°C° 0.2 mm 1 m/s 707 mmHg 83%
03:00 +7°C° 0 mm 1 m/s 707 mmHg 84%
04:00 +7°C° 0 mm 1 m/s 707 mmHg 85%
05:00 +6°C° 0 mm 1 m/s 707 mmHg 84%
06:00 +6°C° 0 mm 2 m/s 708 mmHg 78%
07:00 +7°C° 0 mm 2 m/s 708 mmHg 71%
08:00 +8°C° 0 mm 3 m/s 709 mmHg 64%
09:00 +9°C° 0 mm 3 m/s 709 mmHg 62%
10:00 +10°C° 0 mm 3 m/s 709 mmHg 60%
11:00 +12°C° 0 mm 2 m/s 709 mmHg 58%
12:00 +13°C° 0 mm 2 m/s 709 mmHg 56%
13:00 +14°C° 0 mm 2 m/s 708 mmHg 55%
14:00 +15°C° 0 mm 2 m/s 708 mmHg 53%
15:00 +15°C° 0 mm 2 m/s 709 mmHg 54%
16:00 +15°C° 0 mm 1 m/s 709 mmHg 54%
17:00 +15°C° 0 mm 2 m/s 709 mmHg 55%
18:00 +14°C° 0.1 mm 1 m/s 709 mmHg 61%
19:00 +12°C° 0.1 mm 1 m/s 709 mmHg 66%
20:00 +9°C° 0.1 mm 0 m/s 709 mmHg 72%
21:00 +10°C° 0 mm 1 m/s 709 mmHg 73%
22:00 +10°C° 0 mm 1 m/s 709 mmHg 74%
23:00 +10°C° 0 mm 1 m/s 709 mmHg 75%

Amanhã, 13 Abril, Terça-feira

Tempo Temperatura Precipitação Vento Pressão Humidade
00:00 +10°C° 0 mm 1 m/s 709 mmHg 75%
01:00 +9°C° 0 mm 1 m/s 709 mmHg 75%
02:00 +9°C° 0 mm 1 m/s 708 mmHg 75%
03:00 +8°C° 0 mm 2 m/s 708 mmHg 73%
04:00 +8°C° 0 mm 2 m/s 708 mmHg 72%
05:00 +8°C° 0 mm 2 m/s 708 mmHg 70%
06:00 +10°C° 0 mm 2 m/s 709 mmHg 66%
07:00 +12°C° 0 mm 1 m/s 709 mmHg 63%
08:00 +14°C° 0 mm 1 m/s 710 mmHg 60%
09:00 +16°C° 0 mm 1 m/s 710 mmHg 55%
10:00 +18°C° 0 mm 1 m/s 710 mmHg 50%
11:00 +20°C° 0 mm 1 m/s 710 mmHg 45%
12:00 +20°C° 0 mm 1 m/s 710 mmHg 43%
13:00 +20°C° 0 mm 2 m/s 710 mmHg 42%
14:00 +21°C° 0 mm 2 m/s 710 mmHg 40%
15:00 +20°C° 0.1 mm 2 m/s 710 mmHg 46%
16:00 +19°C° 0.1 mm 2 m/s 710 mmHg 52%
17:00 +18°C° 0.1 mm 2 m/s 710 mmHg 58%
18:00 +17°C° 0 mm 2 m/s 710 mmHg 61%
19:00 +16°C° 0 mm 2 m/s 709 mmHg 64%
20:00 +14°C° 0 mm 2 m/s 709 mmHg 67%
21:00 +14°C° 0 mm 2 m/s 709 mmHg 68%
22:00 +13°C° 0 mm 2 m/s 709 mmHg 69%
23:00 +12°C° 0 mm 2 m/s 708 mmHg 70%

Depois de amanhã, 14 Abril, Quarta-feira

Tempo Temperatura Precipitação Vento Pressão Humidade
00:00 +12°C° 0 mm 2 m/s 708 mmHg 69%
01:00 +12°C° 0 mm 2 m/s 708 mmHg 68%
02:00 +11°C° 0 mm 3 m/s 707 mmHg 67%
03:00 +11°C° 0 mm 3 m/s 707 mmHg 66%
04:00 +11°C° 0 mm 3 m/s 707 mmHg 66%
05:00 +10°C° 0 mm 3 m/s 707 mmHg 65%
06:00 +12°C° 0 mm 3 m/s 707 mmHg 63%
07:00 +13°C° 0 mm 3 m/s 708 mmHg 62%
08:00 +16°C° 0 mm 2 m/s 708 mmHg 60%
09:00 +17°C° 0 mm 2 m/s 708 mmHg 54%
10:00 +19°C° 0 mm 2 m/s 707 mmHg 49%
11:00 +21°C° 0 mm 2 m/s 707 mmHg 44%
12:00 +21°C° 0 mm 2 m/s 707 mmHg 42%
13:00 +22°C° 0 mm 3 m/s 707 mmHg 40%
14:00 +24°C° 0 mm 3 m/s 707 mmHg 38%
15:00 +22°C° 0 mm 4 m/s 706 mmHg 42%
16:00 +21°C° 0 mm 5 m/s 706 mmHg 46%
17:00 +20°C° 0 mm 6 m/s 705 mmHg 49%
18:00 +18°C° 0.2 mm 4 m/s 705 mmHg 58%
19:00 +14°C° 0.2 mm 3 m/s 706 mmHg 67%
20:00 +13°C° 0.2 mm 2 m/s 706 mmHg 76%
21:00 +13°C° 0.1 mm 2 m/s 706 mmHg 73%
22:00 +12°C° 0.1 mm 3 m/s 705 mmHg 70%
23:00 +12°C° 0.1 mm 3 m/s 705 mmHg 68%

15 Abril, Quinta-feira

Tempo Temperatura Precipitação Vento Pressão Humidade
00:00 +12°C° 0.1 mm 3 m/s 705 mmHg 65%
01:00 +13°C° 0.1 mm 2 m/s 704 mmHg 62%
02:00 +13°C° 0.1 mm 2 m/s 704 mmHg 60%
03:00 +13°C° 0.1 mm 2 m/s 704 mmHg 60%
04:00 +13°C° 0.1 mm 2 m/s 704 mmHg 60%
05:00 +13°C° 0.1 mm 1 m/s 705 mmHg 60%
06:00 +14°C° 0 mm 1 m/s 705 mmHg 57%
07:00 +16°C° 0 mm 1 m/s 705 mmHg 55%
08:00 +16°C° 0 mm 0 m/s 705 mmHg 53%
09:00 +19°C° 0 mm 1 m/s 705 mmHg 51%
10:00 +20°C° 0 mm 1 m/s 706 mmHg 49%
11:00 +21°C° 0 mm 2 m/s 706 mmHg 48%
12:00 +21°C° 0 mm 2 m/s 705 mmHg 48%
13:00 +23°C° 0 mm 2 m/s 705 mmHg 48%
14:00 +22°C° 0 mm 3 m/s 705 mmHg 48%
15:00 +21°C° 0 mm 3 m/s 705 mmHg 51%
16:00 +21°C° 0 mm 3 m/s 705 mmHg 54%
17:00 +20°C° 0 mm 3 m/s 705 mmHg 58%
18:00 +18°C° 0.2 mm 2 m/s 705 mmHg 62%
19:00 +18°C° 0.2 mm 1 m/s 704 mmHg 66%
20:00 +14°C° 0.2 mm 0 m/s 704 mmHg 71%
21:00 +15°C° 0 mm 1 m/s 704 mmHg 71%
22:00 +14°C° 0 mm 1 m/s 704 mmHg 72%
23:00 +14°C° 0 mm 1 m/s 704 mmHg 72%

16 Abril, Sexta-feira

Tempo Temperatura Precipitação Vento Pressão Humidade
00:00 +13°C° 0 mm 1 m/s 704 mmHg 72%
01:00 +13°C° 0 mm 1 m/s 703 mmHg 72%
02:00 +13°C° 0 mm 1 m/s 703 mmHg 71%
03:00 +12°C° 0 mm 1 m/s 703 mmHg 72%
04:00 +12°C° 0 mm 1 m/s 703 mmHg 72%
05:00 +12°C° 0 mm 1 m/s 703 mmHg 72%
06:00 +13°C° 0 mm 1 m/s 704 mmHg 67%
07:00 +15°C° 0 mm 1 m/s 704 mmHg 63%
08:00 +16°C° 0 mm 1 m/s 705 mmHg 58%
09:00 +17°C° 0 mm 2 m/s 705 mmHg 52%
10:00 +18°C° 0 mm 3 m/s 705 mmHg 46%
11:00 +20°C° 0 mm 4 m/s 705 mmHg 40%
12:00 +20°C° 0 mm 5 m/s 705 mmHg 40%
13:00 +20°C° 0 mm 6 m/s 705 mmHg 40%
14:00 +21°C° 0 mm 7 m/s 705 mmHg 41%
15:00 +21°C° 0 mm 6 m/s 705 mmHg 43%
16:00 +20°C° 0 mm 5 m/s 705 mmHg 46%
17:00 +20°C° 0 mm 5 m/s 706 mmHg 49%
18:00 +18°C° 0 mm 4 m/s 706 mmHg 52%
19:00 +16°C° 0 mm 3 m/s 706 mmHg 56%
20:00 +15°C° 0 mm 2 m/s 706 mmHg 60%
21:00 +14°C° 0 mm 2 m/s 705 mmHg 60%
22:00 +14°C° 0 mm 1 m/s 705 mmHg 60%
23:00 +13°C° 0 mm 1 m/s 705 mmHg 59%

17 Abril, Sábado

Tempo Temperatura Precipitação Vento Pressão Humidade
00:00 +13°C° 0 mm 1 m/s 705 mmHg 59%
01:00 +13°C° 0 mm 1 m/s 704 mmHg 58%
02:00 +12°C° 0 mm 1 m/s 704 mmHg 57%
03:00 +12°C° 0 mm 1 m/s 704 mmHg 56%
04:00 +12°C° 0 mm 1 m/s 704 mmHg 55%
05:00 +12°C° 0 mm 1 m/s 704 mmHg 53%
06:00 +14°C° 0 mm 1 m/s 704 mmHg 51%
07:00 +15°C° 0 mm 1 m/s 705 mmHg 49%
08:00 +18°C° 0 mm 1 m/s 705 mmHg 46%
09:00 +19°C° 0 mm 1 m/s 705 mmHg 41%
10:00 +20°C° 0 mm 2 m/s 705 mmHg 36%
11:00 +21°C° 0 mm 2 m/s 705 mmHg 31%
12:00 +21°C° 0 mm 2 m/s 705 mmHg 31%
13:00 +22°C° 0 mm 3 m/s 705 mmHg 31%
14:00 +22°C° 0 mm 3 m/s 704 mmHg 31%
15:00 +22°C° 0 mm 3 m/s 704 mmHg 34%
16:00 +21°C° 0 mm 3 m/s 704 mmHg 37%
17:00 +21°C° 0 mm 3 m/s 704 mmHg 40%
18:00 +19°C° 0 mm 2 m/s 704 mmHg 42%
19:00 +18°C° 0 mm 1 m/s 704 mmHg 45%
20:00 +16°C° 0 mm 1 m/s 704 mmHg 48%
21:00 +16°C° 0 mm 1 m/s 705 mmHg 48%
22:00 +15°C° 0 mm 2 m/s 705 mmHg 48%
23:00 +15°C° 0 mm 2 m/s 705 mmHg 48%
Mostrar mais